#timestamp,LO_Frequency,Hit,StdDev 
1657231215.5,286046996.9,N
1657231235.3,286046997.3,N
1657231255.1,286046999.5,N
1657231275.9,286047001.2,N
1657231295.7,286046998.4,N
1657231315.5,286046998.4,N
1657231335.4,286046999.3,N
1657231355.2,286046999.3,N
1657231375.0,286046998.7,N
1657231376.0,286046998.7,N
1657231395.8,286046998.3,N
1657231415.6,286046999.4,N
1657231435.5,286046999.2,N
1657231455.3,286046996.6,N
1657231475.1,286046998.7,N
1657231495.9,286046999.3,N
1657231515.7,286046996.7,N
1657231535.5,286046998.8,N
1657231555.4,286046998.8,N
1657231575.2,286046998.2,N
1657231595.1,286046999.3,N
1657231596.0,286046999.3,N
1657231615.8,286046999.5,N
1657231635.6,286046999.2,N
1657231655.5,286046998.9,N
1657231675.3,286046996.5,Y
1657231695.1,286046998.7,P
1657231715.9,286047000.1,N
1657231735.7,286047002.2,P
1657231755.6,286046999.7,N
1657231775.4,286047002.2,N
1657231795.2,286047001.8,N
1657231815.1,286047002.0,N
1657231816.0,286047002.0,N
1657231835.8,286047001.6,N
1657231855.7,286047001.5,N
1657231875.5,286047002.0,N
1657231895.3,286047002.7,N
1657231915.2,286047000.8,N
1657231935.0,286046998.4,N
1657231935.9,286046998.4,N
1657231955.8,286046999.5,N
1657231975.6,286046997.0,N
1657231995.4,286046998.6,N
1657232015.3,286046998.7,N
1657232035.1,286046998.6,N
1657232055.8,286046999.1,N
1657232075.7,286046996.9,N
1657232095.5,286046999.2,N
1657232115.4,286046998.3,N
1657232135.2,286047001.0,N
1657232155.0,286046998.9,N
1657232155.9,286046998.9,N
1657232175.8,286046996.5,N
1657232195.6,286046999.5,N
1657232215.5,286046998.5,N
1657232235.3,286046998.4,N
1657232255.1,286046996.5,N
1657232275.9,286046998.6,N
1657232295.7,286046998.4,N
1657232315.5,286046998.9,N
1657232335.4,286047000.2,N
1657232355.2,286047000.4,N
1657232375.1,286046998.4,N
1657232376.0,286046998.4,N
1657232395.8,286046999.3,N
1657232415.6,286047001.0,N
1657232435.5,286047001.0,N
1657232455.3,286046998.5,N
1657232475.2,286047000.5,N
1657232495.9,286047000.1,N
1657232515.7,286046999.9,N
1657232535.6,286047001.1,N
1657232555.4,286046998.7,N
1657232575.2,286047001.5,N
1657232595.1,286047000.1,N
1657232596.0,286047000.1,N
1657232615.8,286046998.2,N
1657232635.7,286046998.8,N
1657232655.5,286047000.2,N
1657232675.3,286047000.8,N
1657232695.2,286047000.6,N
1657232715.0,286047000.6,N
1657232715.9,286047000.6,N
1657232735.8,286047000.8,N
1657232755.6,286047001.3,N
1657232775.4,286047002.3,N
1657232795.3,286047000.8,N
1657232815.1,286046999.8,N
1657232835.9,286047000.5,N
1657232855.7,286047001.0,N
1657232875.5,286047001.0,N
1657232895.4,286047001.5,N
1657232915.2,286047004.1,Y
1657232935.0,286047002.0,P
1657232936.0,286047002.0,N
1657232955.8,286047000.7,N
1657232975.6,286046998.4,N
1657232995.5,286046998.3,N
1657233015.3,286047000.8,N
1657233035.1,286047000.7,N
1657233055.9,286047002.0,N
1657233075.7,286046999.8,N
1657233095.6,286046998.5,N
1657233115.4,286046998.3,N
1657233135.2,286046998.5,N
1657233155.1,286046998.3,N
1657233156.0,286046998.3,N
1657233175.8,286047000.1,N
1657233195.7,286047001.2,N
1657233215.5,286046999.1,N
1657233235.3,286046997.0,N
1657233255.2,286046999.1,N
1657233275.0,286046999.5,N
1657233275.9,286046999.5,N
1657233295.7,286046997.2,N
1657233315.6,286046999.6,N
1657233335.4,286046997.1,N
1657233355.3,286046997.6,N
1657233375.1,286046997.3,N
1657233395.8,286046999.1,N
1657233415.7,286046999.1,N
1657233435.5,286046997.0,N
1657233455.4,286047000.8,N
1657233475.2,286047002.2,N
1657233495.0,286047002.0,N
1657233495.9,286047002.0,N
1657233515.8,286047002.4,N
1657233535.6,286047001.5,N
1657233555.4,286047000.6,N
1657233575.3,286047000.6,N
1657233595.1,286047000.6,N
1657233615.8,286047002.5,N
1657233635.7,286047002.0,N
1657233655.5,286047001.3,N
1657233675.4,286047002.2,N
1657233695.2,286047001.1,N
1657233715.0,286046998.8,N
1657233715.9,286046998.8,N
1657233735.8,286046998.2,N
1657233755.6,286047002.4,N
1657233775.4,286047003.8,N
1657233795.3,286047002.8,N
1657233815.1,286047000.3,N
1657233835.9,286047002.6,N
1657233855.7,286047003.7,N
1657233875.5,286047003.3,N
1657233895.4,286047005.8,N
1657233915.2,286047001.6,N
1657233935.0,286047002.8,N
1657233935.9,286047002.8,N
1657233955.8,286046999.9,N
1657233975.6,286047002.5,N
1657233995.5,286047001.9,N
1657234015.3,286047003.9,N
1657234035.1,286047004.2,N
1657234055.9,286047004.4,N
1657234075.7,286047000.2,N
1657234095.5,286047001.2,N
1657234115.4,286046998.4,N
1657234135.2,286046999.7,N
1657234155.1,286047000.9,N
1657234156.0,286047000.9,N
1657234175.8,286047000.4,N
1657234195.6,286046998.5,N
1657234215.5,286046998.1,N
1657234235.3,286046998.7,N
1657234255.2,286046998.4,N
1657234275.9,286046998.1,N
1657234295.7,286046998.3,N
1657234315.6,286046998.4,N
1657234335.4,286047002.1,N
1657234385.3,286047001.2,E
1657234395.2,286046998.7,N
1657234415.0,286046996.9,P
1657234415.9,286046996.9,P
1657234435.8,286046997.8,N
1657234455.6,286046998.3,N
1657234475.4,286046998.5,N
1657234495.3,286047000.8,N
1657234515.1,286047002.8,N
1657234535.8,286046999.7,N
1657234555.7,286047001.6,N
1657234575.5,286047000.4,N
1657234595.4,286047000.0,N
1657234615.2,286046999.8,N
1657234635.0,286047001.3,N
1657234635.9,286047001.3,N
1657234655.8,286047001.3,N
1657234675.6,286047000.4,N
1657234695.4,286047002.4,N
1657234715.3,286047002.4,N
1657234735.1,286047002.6,N
1657234755.9,286047002.6,N
1657234775.7,286047000.8,N
1657234795.5,286046999.7,N
